Regional Weather Roundup
Issued by NWS

Home | Current Version | Previous Version | Graphics & Text | Print | Product List | Glossary On
Versions: 1 2 3 4 5 6 7 8 9 10 11 12 13 14 15 16 17 18 19 20 21 22 23 24 25 26 27 28 29 30 31 32 33 34 35 36 37 38 39 40 41 42 43 44 45 46 47 48 49 50
080
ASUS43 KDMX 240606
RWRIA

WEATHER ROUNDUP FOR IOWA
NATIONAL WEATHER SERVICE DES MOINES IA
100 AM CDT SAT JUN 24 2017

NOTE: "FAIR" INDICATES FEW OR NO CLOUDS BELOW 12,000 FEET WITH NO
SIGNIFICANT WEATHER AND/OR OBSTRUCTIONS TO VISIBILITY.

* - THESE STATIONS ARE NOT NWS STATIONS...THUS NOT UNDER NWS
QUALITY CONTROL.  THEY ALSO DO NOT REPORT WEATHER SUCH
AS PRECIPITATION OR FOG.

IAZ001>003-012>014-020>022-031>034-043>046-240700-
   NORTHWEST IOWA

CITY           SKY/WX    TMP DP  RH WIND       PRES   REMARKS
CARROLL *      PTCLDY    54  48  82 W9        30.08R
CHEROKEE *     CLEAR     54  42  63 NW5       30.09R
DENISON *      CLEAR     52  46  82 CALM      30.11S
LE MARS *      CLEAR     54  41  62 NW5       30.11R
ORANGE CITY *  CLEAR     50  45  81 CALM      30.10R
SHELDON *      CLEAR     54  43  66 W8        30.07S
SIOUX CITY     CLEAR     54  42  64 NW7       30.11R
6HR MIN TEMP:  54; 6HR MAX TEMP:  72;

SPENCER        CLEAR     52  46  80 NW10      30.07R
6HR MIN TEMP:  51; 6HR MAX TEMP:  68;

STORM LAKE *   CLEAR     55  43  62 NW9       30.09R
$$

IAZ055>058-069>071-079>083-090>094-240700-
   SOUTHWEST IOWA

CITY           SKY/WX    TMP DP  RH WIND       PRES   REMARKS
ATLANTIC *     CLEAR     59  52  77 NW8       30.10R
AUDUBON *      CLEAR     57  50  77 CALM      30.10R
CLARINDA *     CLEAR     57  52  82 W6        30.12R
COUNCIL BLFS * CLEAR     59  46  63 NW7       30.12R
CRESTON *      MOCLDY    57  52  82 NW7       30.10R
HARLAN  *      PTCLDY    55  50  82 NW9       30.13S
LAMONI         CLEAR     61  52  72 NW7       30.07R
6HR MIN TEMP:  60; 6HR MAX TEMP:  73;

RED OAK *      CLEAR     55  52  88 NW5       30.10R
SHENANDOAH *   CLEAR     57  54  88 CALM      30.11S
$$

IAZ047>049-059>061-072>074-084-240700-
   CENTRAL IOWA

CITY           SKY/WX    TMP DP  RH WIND       PRES   REMARKS
AMES           CLEAR     60  52  74 NW8       30.04S
6HR MIN TEMP:  60; 6HR MAX TEMP:  72;

ANKENY *       CLEAR     61  50  67 NW7       30.06R
BOONE *        CLEAR     59  50  72 NW8       30.04S
CHARITON *     PTCLDY    61  52  72 NW9       30.05R
DES MOINES     CLEAR     62  50  64 W5        30.05R
6HR MIN TEMP:  62; 6HR MAX TEMP:  73;

GRINNELL*      CLEAR     59  51  76 W6        30.04R
KNOXVILLE *    CLEAR     59  52  77 NW7       30.03R
MARSHALLTOWN   CLEAR     58  52  80 NW8       30.02R
6HR MIN TEMP:  58; 6HR MAX TEMP:  70;

NEWTON *       PTCLDY    61  50  67 NW10G16   30.04S
PELLA *        PTCLDY    60  52  73 NW7       30.05R
PERRY *          N/A     55  52  89 W7        30.06R
$$

IAZ004>006-015-016-023>025-035-036-240700-
   NORTH CENTRAL IOWA

CITY           SKY/WX    TMP DP  RH WIND       PRES   REMARKS
ALGONA *       CLEAR     54  50  87 W7        30.05S
CLARION *        N/A     55  52  88 NW12      30.03S
ESTHERVILLE    CLEAR     52  48  86 NW10      30.05R
6HR MIN TEMP:  52; 6HR MAX TEMP:  66;

FORT DODGE *   CLEAR     55  46  71 W3        30.06R
MASON CITY     MOCLDY    57  49  74 W9        30.03R
6HR MIN TEMP:  57; 6HR MAX TEMP:  68;

FOREST CITY *  MOCLDY    55  45  67 W7        30.02S
WEBSTER CITY * CLEAR     54  50  87 W6        30.03R
IOWA FALLS *     N/A     57  52  84 W8        30.04R
$$

IAZ007>011-017>019-026>030-037>042-050>054-066-240700-
   NORTHEAST IOWA

CITY           SKY/WX    TMP DP  RH WIND       PRES   REMARKS
CEDAR RAPIDS   CLEAR     61  56  83 NW12      29.98R
6HR MIN TEMP:  58; 6HR MAX TEMP:  70;

CHARLES CITY * CLEAR     57  55  94 W7        30.00R
CLINTON *      CLEAR     60  56  86 NW8       29.95S
DECORAH *      CLEAR     59  54  82 W8G14     29.95S
DUBUQUE        PTCLDY    60  54  80 W12       29.95R
6HR MIN TEMP:  60; 6HR MAX TEMP:  69;

MONTICELLO *   CLEAR     61  55  82 W8        29.96R
OELWEIN *      CLEAR     59  54  82 NW10      29.99R
WATERLOO       CLEAR     60  51  72 W7        29.99R
6HR MIN TEMP:  60; 6HR MAX TEMP:  71;

$$

IAZ064-065-067-068-078-240700-
   EAST CENTRAL IOWA

CITY           SKY/WX    TMP DP  RH WIND       PRES   REMARKS
DAVENPORT      CLEAR     60  56  86 W10       29.96R
6HR MIN TEMP:  60; 6HR MAX TEMP:  72;

IOWA CITY      CLEAR     62  54  74 W7        30.00R
6HR MIN TEMP:  62; 6HR MAX TEMP:  74;

MT. PLEASANT * CLEAR     64  51  63 W7        30.00S
MUSCATINE *    CLEAR     64  54  68 NW12      29.97F
QUAD CITIES    CLEAR     65  55  70 W9        29.96R
6HR MIN TEMP:  65; 6HR MAX TEMP:  75;

$$

IAZ062-063-075>077-085>089-095>099-240700-
   SOUTHEAST IOWA

CITY           SKY/WX    TMP DP  RH WIND       PRES   REMARKS
BURLINGTON     CLEAR     65  54  67 NW10      29.97S
6HR MIN TEMP:  63; 6HR MAX TEMP:  75;

FAIRFIELD *    CLEAR     61  52  72 NW9       30.00S
FORT MADISON * CLEAR     63  54  72 NW9       30.00R
KEOKUK *       CLEAR     61  55  82 W7        30.00R
OSKALOOSA *      N/A     58  52  80 NW7       30.03S
CENTERVILLE *    N/A     59  54  82 CALM      30.06R
OTTUMWA        CLEAR     58  54  86 NW7       30.02R
6HR MIN TEMP:  57; 6HR MAX TEMP:  74;

WASHINGTON *   CLEAR     61  54  77 NW10      30.00S
$$

ABBREVIATIONS USED IN REMARKS
   TC - TEMPERATURES IN CELSIUS
  WCI - WIND CHILL INDEX
   HX - HEAT INDEX
  VSB - VISIBILITY
$$





USA.gov is the U.S. government's official web portal to all federal, state and local government web resources and services.